Home > Weather > Dudley > Past weeks

Flag for United Kingdom Past Weather in Dudley, England, United Kingdom — Yesterday and Last 2 Weeks

Now
52 °F

Sunny.


Feels Like: 47 °F
Forecast: 53 / 60 °F
Wind: 13 mph from North

Location: Birmingham / Airport

Current Time: May 31, 2016 at 6:54:58 AM

Latest Report: May 31, 2016 at 6:20 AM


Visibility: 10 mi

Pressure: 30.07 "Hg

Humidity: 72%

Dew Point: 43 °F

Location of DudleyLocation

Past Weather in Dudley — Graph

°F

Dudley Temperature Yesterday

Maximum temperature yesterday: 64 °F (at 3:50 PM)
Minimum temperature yesterday: 50 °F (at 4:50 AM)
Average temperature yesterday: 56 °F

High & Low Weather Summary for the Past Weeks

 TemperatureHumidityPressure
High64 °F (May 27, 2:50 PM)100% (May 18, 6:50 AM)30.21 "Hg (May 18, 6:50 AM)
Low45 °F (May 16, 5:20 AM)42% (May 16, 4:20 PM)29.56 "Hg (May 18, 11:20 AM)
Average54 °F77%29.95 "Hg
* Reported May 16 5:20 AM — May 31 5:20 AM, Dudley, Weather by CustomWeather, © 2016

Note: Actual official high and low records may vary slightly from our data, if they occured in-between our weather recording intervals... More about our weather records

Advertising

Dudley Weather History for the Previous 24 Hours

Scroll right to see more
 ConditionsComfort  
Time TempWeatherWind HumidityBarometerVisibility
5:20 AM
Tue, May 31
50 °FClear.12 mph82%30.07 "Hg10 mi
4:50 AM52 °FClear.12 mph77%30.07 "Hg10 mi
4:20 AM52 °FClear.14 mph77%30.07 "Hg10 mi
3:50 AM52 °FClear.14 mph77%30.07 "Hg10 mi
3:20 AM52 °FClear.14 mph77%30.07 "Hg10 mi
2:50 AM54 °FClear.14 mph72%30.07 "Hg10 mi
2:20 AM54 °FClear.14 mph72%30.07 "Hg10 mi
1:50 AM54 °FClear.13 mph72%30.07 "Hg10 mi
1:20 AM54 °FClear.13 mph77%30.09 "Hg10 mi
12:50 AM54 °FClear.13 mph77%30.09 "Hg10 mi
12:20 AM55 °FClear.14 mph72%30.09 "Hg10 mi
11:50 PM
Mon, May 30
55 °FClear.14 mph72%30.09 "Hg10 mi
11:20 PM55 °FClear.14 mph72%30.09 "Hg10 mi
10:50 PM57 °FClear.14 mph72%30.09 "Hg10 mi
10:20 PM57 °FClear.15 mph72%30.09 "Hg10 mi
9:50 PM57 °FSunny.12 mph77%30.09 "Hg10 mi
9:20 PM59 °FPassing clouds.14 mph72%30.09 "HgN/A
8:50 PM59 °FPassing clouds.16 mph72%30.09 "HgN/A
8:20 PM61 °FPassing clouds.16 mph68%30.07 "HgN/A
7:50 PM63 °FPassing clouds.13 mph64%30.07 "HgN/A
7:20 PM63 °FPassing clouds.16 mph64%30.07 "HgN/A
6:50 PM63 °FPassing clouds.15 mph64%30.07 "HgN/A
6:20 PM64 °FPassing clouds.14 mph64%30.07 "HgN/A
5:50 PM63 °FScattered clouds.14 mph68%30.07 "HgN/A
5:20 PM64 °FBroken clouds.15 mph64%30.07 "HgN/A
4:50 PM64 °FBroken clouds.15 mph64%30.07 "HgN/A
4:20 PM64 °FPartly sunny.15 mph64%30.07 "HgN/A
3:50 PM64 °FPartly sunny.16 mph64%30.07 "HgN/A
3:20 PM63 °FPartly sunny.13 mph68%30.07 "HgN/A
2:50 PM63 °FPartly sunny.14 mph68%30.07 "HgN/A
2:20 PM61 °FPartly sunny.14 mph68%30.09 "HgN/A
1:50 PM61 °FPartly sunny.13 mph68%30.09 "HgN/A
1:20 PM59 °FBroken clouds.12 mph77%30.09 "HgN/A
12:50 PM59 °FPartly sunny.13 mph77%30.09 "HgN/A
12:20 PM57 °FMostly cloudy.12 mph77%30.07 "HgN/A
11:50 AM55 °FPartly sunny.10 mph82%30.07 "HgN/A
11:20 AM54 °FMostly cloudy.13 mph82%30.07 "HgN/A
10:50 AM54 °FPartly sunny.13 mph82%30.09 "HgN/A
10:20 AM52 °FMostly cloudy.12 mph88%30.09 "HgN/A
9:50 AM52 °FMostly cloudy.14 mph88%30.07 "Hg6 mi
9:20 AM52 °FMostly cloudy.12 mph88%30.07 "Hg6 mi
8:50 AM52 °FMostly cloudy.12 mph88%30.07 "Hg6 mi
8:20 AM52 °FMostly cloudy.12 mph88%30.07 "Hg4 mi
7:50 AM52 °FMostly cloudy.9 mph88%30.07 "Hg4 mi
7:20 AM52 °FLow clouds.9 mph88%30.04 "Hg5 mi
6:50 AM52 °FLow clouds.8 mph88%30.04 "Hg5 mi
6:20 AM52 °FLow clouds.9 mph88%30.04 "Hg4 mi
Weather by CustomWeather, © 2016

See weather overviewHow to use our weather pages